Ottawa, IL (61350)

10:25 PM CDT on August 24, 2016 (GMT -0500)
LaSalle County Government Complex | | Change Station
Active Advisory: Flash Flood Watch

Elev 614 ft 41.37 °N, 88.83 °W | Updated 9 minutes ago

Scattered Clouds
Scattered Clouds
75.7 °F
Feels Like 75 °F
N
5.0
Wind Variable Wind from SSW
Gusts 6.0 mph

Today
High -- | Low -- °F
--% Chance of Precip.
Yesterday
High -- | Low -- °F
Precip. -- in
Pressure 30.00 in
Visibility 10.0 miles
Clouds Scattered Clouds 11000 ft
Heat Index 75 °F
Dew Point 73 °F
Humidity 90%
Rainfall 0.43 in
Snow Depth Not available.
6:14 AM 7:40 PM
Waning Gibbous, 50% visible
METAR KVYS 250315Z AUTO 21005KT 10SM SCT110 24/23 A3000 RMK AO2 T02400230
Pressure 30.00 in
Visibility 10.0 miles
Clouds Scattered Clouds 11000 ft
Heat Index 75 °F
Dew Point 73 °F
Humidity 90%
Rainfall 0.43 in
Snow Depth Not available.
6:14 AM 7:40 PM
Waning Gibbous, 50% visible
METAR KVYS 250315Z AUTO 21005KT 10SM SCT110 24/23 A3000 RMK AO2 T02400230

10-Day Weather Forecast

Almanac

Astronomy

Aug. 24, 2016 Rise Set
Actual Time
Civil Twilight
Nautical Twilight
Astronomical Twilight
Moon
Length of Visible Light
Length of Day
Tomorrow will be .
, % of the Moon is Illuminated

Today's Extremes

State Highs State Lows

Community

WunderPhotos

Upload Photos

1,934,785 photos uploaded!

WunderBlog® & News

Nearby

Air Quality

  Air Quality AQ Index Pollutant
Not available.

Snow Depth

Station Depth Elevation

Earthquake Activity

City Distance Mag. Time & Date
Minimum magnitude displayed is 2.5.

Coastal Water Temperatures

Place Temperature

Stations

Nearby Weather Stations

Station Location Temp. Windchill Dew Point Humidity Wind Precip. Elev Updated Type
                   

Watches & Warnings

Flash Flood Watch
Issued: 9:38 PM CDT Aug. 24, 2016 – National Weather Service

... Flash Flood Watch remains in effect from 1 am CDT Thursday
through Thursday morning...

The Flash Flood Watch continues for

* portions of central Illinois... north central Illinois and
northeast Illinois... including the following counties... in
central Illinois... Livingston. In north central Illinois... La
Salle and Lee. In northeast Illinois... Grundy and Kendall.

* From 1 am CDT Thursday through Thursday morning.

* Very heavy rainfall of 2 to 3 inches... or more... over short
periods of time from thunderstorms developing late tonight
into early tomorrow morning.

* Flash flooding is possible along creeks... streams... and other
low lying and flood prone areas. Water may also cover roads
along with rapid rises on local streams.

Precautionary/preparedness actions...

A Flash Flood Watch means that conditions may develop that lead
to flash flooding. Flash flooding is a very dangerous situation.

You should monitor later forecasts and be prepared to take action
should flash flood warnings be issued.



Izzi